| time (UTC) | temp F | wind direction | speed knots | gust knots | rain 1hr in | rain 24hr in | rain mn in | humidity % | barometer mb |
| 20260506073051 | 48 | 0 | 1.7 | 10.4 | 0.00 | 0.00 | 0.00 | 78 | 1012.8 |
| 20260506072541 | 49 | 0 | 0.9 | 8.7 | 0.00 | 0.00 | 0.00 | 79 | 1012.8 |
| 20260506072041 | 49 | 355 | 0.0 | 8.7 | 0.00 | 0.00 | 0.00 | 79 | 1012.8 |
| 20260506071556 | 49 | 346 | 1.7 | 9.6 | 0.00 | 0.00 | 0.00 | 79 | 1012.8 |
| 20260506071041 | 48 | 0 | 0.9 | 11.3 | 0.00 | 0.00 | 0.00 | 79 | 1012.8 |
| 20260506070543 | 48 | 0 | 2.6 | 11.3 | 0.00 | 0.00 | 0.00 | 79 | 1012.8 |
| 20260506062041 | 47 | 311 | 1.7 | 7.8 | 0.00 | 0.00 | 0.00 | 82 | 1012.7 |
| 20260506061555 | 47 | 40 | 1.7 | 7.8 | 0.00 | 0.00 | 0.00 | 81 | 1012.7 |
| 20260506061041 | 46 | 0 | 0.9 | 7.8 | 0.00 | 0.00 | 0.00 | 82 | 1012.7 |
| 20260506060542 | 46 | 0 | 1.7 | 7.0 | 0.00 | 0.00 | 0.00 | 82 | 1012.7 |
| 20260506051042 | 46 | 360 | 0.0 | 5.2 | 0.00 | 0.00 | 0.00 | 83 | 1012.3 |
| 20260506050545 | 46 | 327 | 1.7 | 5.2 | 0.00 | 0.00 | 0.00 | 83 | 1012.3 |
| 20260506045041 | 46 | 0 | 1.7 | 5.2 | 0.00 | 0.00 | 0.00 | 82 | 1012.4 |
| 20260506044550 | 46 | 0 | 0.9 | 5.2 | 0.00 | 0.00 | 0.00 | 82 | 1012.4 |
| 20260506044041 | 46 | 0 | 0.0 | 4.3 | 0.00 | 0.00 | 0.00 | 82 | 1012.2 |
| 20260506043541 | 46 | 333 | 0.0 | 4.3 | 0.00 | 0.00 | 0.00 | 82 | 1012.3 |
| 20260506043050 | 46 | 331 | 0.9 | 8.7 | 0.00 | 0.00 | 0.00 | 82 | 1012.3 |
| 20260506042542 | 46 | 0 | 0.9 | 8.7 | 0.00 | 0.00 | 0.00 | 82 | 1012.3 |
| 20260506042045 | 46 | 340 | 1.7 | 7.0 | 0.00 | 0.00 | 0.00 | 82 | 1012.3 |
| 20260506041559 | 46 | 0 | 1.7 | 7.0 | 0.00 | 0.00 | 0.00 | 82 | 1012.4 |
| 20260506041041 | 46 | 342 | 1.7 | 7.0 | 0.00 | 0.00 | 0.00 | 82 | 1012.4 |
| 20260506040539 | 46 | 355 | 1.7 | 5.2 | 0.00 | 0.00 | 0.00 | 82 | 1012.4 |
| 20260506040109 | 46 | 0 | 0.0 | 5.2 | 0.00 | 0.00 | 0.00 | 82 | 1012.4 |
| 20260506035541 | 47 | 355 | 0.0 | 7.0 | 0.00 | 0.00 | 0.00 | 82 | 1012.3 |
| 20260506035039 | 47 | 323 | 1.7 | 7.0 | 0.00 | 0.00 | 0.00 | 82 | 1012.3 |
| 20260506034551 | 47 | 340 | 1.7 | 7.8 | 0.00 | 0.00 | 0.00 | 82 | 1012.3 |
| 20260506034042 | 47 | 355 | 2.6 | 11.3 | 0.00 | 0.00 | 0.00 | 81 | 1012.3 |
| 20260506033540 | 47 | 345 | 4.3 | 11.3 | 0.00 | 0.00 | 0.00 | 82 | 1012.3 |
| 20260506033047 | 47 | 0 | 2.6 | 12.2 | 0.00 | 0.00 | 0.00 | 82 | 1012.2 |
| 20260506032541 | 47 | 9 | 3.5 | 12.2 | 0.00 | 0.00 | 0.00 | 82 | 1012.3 |
| 20260506032043 | 47 | 307 | 3.5 | 10.4 | 0.00 | 0.00 | 0.00 | 82 | 1012.1 |
| 20260506031553 | 47 | 281 | 2.6 | 10.4 | 0.00 | 0.00 | 0.00 | 82 | 1012.2 |
| 20260506031044 | 47 | 286 | 3.5 | 10.4 | 0.00 | 0.00 | 0.00 | 82 | 1012.2 |
| 20260506030541 | 47 | 300 | 2.6 | 11.3 | 0.00 | 0.00 | 0.00 | 82 | 1012.2 |
| 20260506030100 | 47 | 11 | 5.2 | 11.3 | 0.00 | 0.00 | 0.00 | 82 | 1012.2 |
| 20260506025541 | 47 | 5 | 4.3 | 11.3 | 0.00 | 0.00 | 0.00 | 82 | 1012.2 |
| 20260506025041 | 48 | 5 | 3.5 | 8.7 | 0.00 | 0.00 | 0.00 | 82 | 1012.2 |
| 20260506024556 | 48 | 326 | 3.5 | 8.7 | 0.00 | 0.00 | 0.00 | 82 | 1012.2 |
| 20260506024042 | 48 | 0 | 2.6 | 11.3 | 0.00 | 0.00 | 0.00 | 83 | 1012.2 |
| 20260506023540 | 48 | 17 | 3.5 | 11.3 | 0.00 | 0.00 | 0.00 | 82 | 1012.3 |
| 20260506023047 | 48 | 312 | 4.3 | 11.3 | 0.00 | 0.00 | 0.00 | 82 | 1012.3 |
| 20260506022541 | 48 | 344 | 3.5 | 7.8 | 0.00 | 0.00 | 0.00 | 82 | 1012.2 |
| 20260506022041 | 48 | 343 | 1.7 | 9.6 | 0.00 | 0.00 | 0.00 | 82 | 1012.3 |
| 20260506021556 | 48 | 338 | 3.5 | 9.6 | 0.00 | 0.00 | 0.00 | 82 | 1012.3 |
| 20260506021041 | 48 | 23 | 1.7 | 8.7 | 0.00 | 0.00 | 0.00 | 82 | 1012.3 |
| 20260506020540 | 48 | 5 | 2.6 | 7.0 | 0.00 | 0.00 | 0.00 | 82 | 1012.5 |
| 20260506020052 | 48 | 304 | 1.7 | 8.7 | 0.00 | 0.00 | 0.00 | 82 | 1012.4 |
| 20260506015541 | 49 | 0 | 1.7 | 8.7 | 0.00 | 0.00 | 0.00 | 82 | 1012.4 |
| 20260506015044 | 49 | 26 | 4.3 | 8.7 | 0.00 | 0.00 | 0.00 | 82 | 1012.4 |
| 20260506014557 | 49 | 352 | 0.9 | 7.8 | 0.00 | 0.00 | 0.00 | 83 | 1012.4 |
| 20260506014041 | 49 | 5 | 2.6 | 7.8 | 0.00 | 0.00 | 0.00 | 83 | 1012.4 |
| 20260506013540 | 49 | 0 | 1.7 | 7.0 | 0.00 | 0.00 | 0.00 | 83 | 1012.3 |
| 20260506013051 | 49 | 346 | 1.7 | 7.0 | 0.00 | 0.00 | 0.00 | 83 | 1012.4 |
| 20260506012542 | 49 | 0 | 1.7 | 7.8 | 0.00 | 0.00 | 0.00 | 83 | 1012.3 |
| 20260506012042 | 49 | 360 | 1.7 | 7.8 | 0.00 | 0.00 | 0.00 | 83 | 1012.4 |
| 20260506011550 | 49 | 39 | 0.9 | 7.0 | 0.00 | 0.00 | 0.00 | 83 | 1012.4 |
| 20260506011041 | 49 | 5 | 1.7 | 7.8 | 0.00 | 0.00 | 0.00 | 83 | 1012.4 |
| 20260506010541 | 49 | 25 | 2.6 | 7.8 | 0.00 | 0.00 | 0.00 | 82 | 1012.5 |
| 20260506010052 | 49 | 336 | 2.6 | 7.8 | 0.00 | 0.00 | 0.00 | 82 | 1012.5 |
| 20260506005541 | 50 | 355 | 2.6 | 7.8 | 0.00 | 0.00 | 0.00 | 82 | 1012.5 |
| 20260506005041 | 50 | 0 | 2.6 | 10.4 | 0.00 | 0.00 | 0.00 | 82 | 1012.5 |
| 20260506004552 | 50 | 332 | 3.5 | 10.4 | 0.00 | 0.00 | 0.00 | 82 | 1012.5 |
| 20260506004041 | 50 | 360 | 3.5 | 9.6 | 0.00 | 0.00 | 0.00 | 82 | 1012.5 |
| 20260506003541 | 50 | 0 | 3.5 | 9.6 | 0.00 | 0.00 | 0.00 | 82 | 1012.5 |
| 20260506003049 | 50 | 0 | 0.9 | 8.7 | 0.00 | 0.00 | 0.00 | 81 | 1012.5 |
| 20260506002540 | 50 | 355 | 2.6 | 8.7 | 0.00 | 0.00 | 0.00 | 81 | 1012.7 |
| 20260506002040 | 50 | 30 | 3.5 | 7.0 | 0.00 | 0.00 | 0.00 | 81 | 1012.6 |
| 20260506001553 | 50 | 328 | 0.9 | 4.3 | 0.00 | 0.00 | 0.00 | 80 | 1012.6 |
| 20260506001041 | 50 | 340 | 1.7 | 9.6 | 0.00 | 0.00 | 0.00 | 80 | 1012.6 |
| 20260506000541 | 50 | 61 | 4.3 | 9.6 | 0.00 | 0.00 | 0.00 | 80 | 1012.7 |
| 20260506000047 | 50 | 338 | 1.7 | 9.6 | 0.00 | 0.00 | 0.00 | 80 | 1012.7 |
| 20260505235541 | 50 | 15 | 3.5 | 9.6 | 0.00 | 0.00 | 0.00 | 79 | 1012.6 |
| 20260505235042 | 51 | 344 | 4.3 | 9.6 | 0.00 | 0.00 | 0.00 | 79 | 1012.6 |
| 20260505234545 | 51 | 38 | 3.5 | 9.6 | 0.00 | 0.00 | 0.00 | 78 | 1012.5 |
| 20260505234041 | 51 | 5 | 4.3 | 11.3 | 0.00 | 0.00 | 0.00 | 78 | 1012.7 |
| 20260505233539 | 51 | 5 | 2.6 | 11.3 | 0.00 | 0.00 | 0.00 | 78 | 1012.6 |
| 20260505233045 | 51 | 5 | 3.5 | 11.3 | 0.00 | 0.00 | 0.00 | 78 | 1012.5 |
| 20260505232539 | 51 | 28 | 1.7 | 11.3 | 0.00 | 0.00 | 0.00 | 77 | 1012.6 |
| 20260505232040 | 51 | 335 | 2.6 | 11.3 | 0.00 | 0.00 | 0.00 | 77 | 1012.4 |
| 20260505231550 | 51 | 360 | 4.3 | 12.2 | 0.00 | 0.00 | 0.00 | 77 | 1012.5 |
| 20260505231040 | 51 | 25 | 4.3 | 12.2 | 0.00 | 0.00 | 0.00 | 77 | 1012.5 |
| 20260505230541 | 51 | 12 | 4.3 | 12.2 | 0.00 | 0.00 | 0.00 | 77 | 1012.5 |
| 20260505230051 | 51 | 29 | 4.3 | 9.6 | 0.00 | 0.00 | 0.00 | 77 | 1012.7 |
| 20260505225542 | 52 | 17 | 3.5 | 12.2 | 0.00 | 0.00 | 0.00 | 77 | 1012.7 |
| 20260505225041 | 52 | 333 | 3.5 | 12.2 | 0.00 | 0.00 | 0.00 | 77 | 1012.6 |
| 20260505224551 | 52 | 10 | 4.3 | 12.2 | 0.00 | 0.00 | 0.00 | 77 | 1012.5 |
| 20260505224040 | 52 | 43 | 5.2 | 10.4 | 0.00 | 0.00 | 0.00 | 77 | 1012.5 |
| 20260505223541 | 52 | 5 | 3.5 | 10.4 | 0.00 | 0.00 | 0.00 | 76 | 1012.4 |
| 20260505223051 | 52 | 334 | 4.3 | 12.2 | 0.00 | 0.00 | 0.00 | 76 | 1012.4 |
| 20260505222539 | 52 | 281 | 5.2 | 13.0 | 0.00 | 0.00 | 0.00 | 76 | 1012.4 |
| 20260505222041 | 53 | 38 | 4.3 | 13.0 | 0.00 | 0.00 | 0.00 | 75 | 1012.3 |
| 20260505221553 | 53 | 327 | 6.1 | 13.0 | 0.00 | 0.00 | 0.00 | 75 | 1012.3 |
| 20260505221043 | 53 | 333 | 4.3 | 13.9 | 0.00 | 0.00 | 0.00 | 74 | 1012.3 |
| 20260505220539 | 53 | 327 | 5.2 | 13.9 | 0.00 | 0.00 | 0.00 | 74 | 1012.3 |
| 20260505220055 | 54 | 355 | 3.5 | 12.2 | 0.00 | 0.00 | 0.00 | 74 | 1012.2 |
| 20260505215541 | 54 | 17 | 4.3 | 12.2 | 0.00 | 0.00 | 0.00 | 73 | 1012.2 |
| 20260505215041 | 54 | 5 | 3.5 | 10.4 | 0.00 | 0.00 | 0.00 | 73 | 1012.2 |
| 20260505214543 | 54 | 28 | 2.6 | 8.7 | 0.00 | 0.00 | 0.00 | 73 | 1012.1 |
| 20260505214041 | 54 | 44 | 3.5 | 9.6 | 0.00 | 0.00 | 0.00 | 73 | 1012.1 |
| 20260505213542 | 54 | 17 | 2.6 | 10.4 | 0.00 | 0.00 | 0.00 | 73 | 1012.0 |
| 20260505213047 | 54 | 23 | 3.5 | 10.4 | 0.00 | 0.00 | 0.00 | 73 | 1012.1 |
| 20260505212541 | 54 | 70 | 4.3 | 10.4 | 0.00 | 0.00 | 0.00 | 73 | 1011.9 |
| 20260505212041 | 54 | 24 | 2.6 | 10.4 | 0.00 | 0.00 | 0.00 | 73 | 1011.9 |
| 20260505211548 | 54 | 18 | 5.2 | 10.4 | 0.00 | 0.00 | 0.00 | 73 | 1011.9 |
| 20260505211040 | 55 | 19 | 3.5 | 11.3 | 0.00 | 0.00 | 0.00 | 73 | 1012.0 |
| 20260505210541 | 55 | 329 | 4.3 | 11.3 | 0.00 | 0.00 | 0.00 | 73 | 1011.8 |
| 20260505210048 | 55 | 10 | 5.2 | 11.3 | 0.00 | 0.00 | 0.00 | 73 | 1011.8 |
| 20260505205543 | 55 | 10 | 2.6 | 11.3 | 0.00 | 0.00 | 0.00 | 73 | 1011.9 |
| 20260505205042 | 55 | 337 | 5.2 | 11.3 | 0.00 | 0.00 | 0.00 | 73 | 1011.9 |
| 20260505204548 | 55 | 346 | 4.3 | 11.3 | 0.00 | 0.00 | 0.00 | 72 | 1011.8 |
| 20260505204041 | 55 | 25 | 3.5 | 11.3 | 0.00 | 0.00 | 0.00 | 72 | 1011.7 |
| 20260505203541 | 55 | 5 | 4.3 | 8.7 | 0.00 | 0.00 | 0.00 | 72 | 1011.7 |
| 20260505203050 | 55 | 336 | 2.6 | 8.7 | 0.00 | 0.00 | 0.00 | 72 | 1011.7 |
| 20260505202541 | 55 | 12 | 2.6 | 8.7 | 0.00 | 0.00 | 0.00 | 72 | 1011.6 |
| 20260505202041 | 55 | 355 | 3.5 | 11.3 | 0.00 | 0.00 | 0.00 | 72 | 1011.6 |
| 20260505201553 | 55 | 42 | 2.6 | 12.2 | 0.00 | 0.00 | 0.00 | 72 | 1011.7 |
| 20260505201040 | 55 | 338 | 3.5 | 12.2 | 0.00 | 0.00 | 0.00 | 72 | 1011.7 |
| 20260505200541 | 55 | 355 | 4.3 | 10.4 | 0.00 | 0.00 | 0.00 | 72 | 1011.6 |
| 20260505200049 | 55 | 26 | 4.3 | 11.3 | 0.00 | 0.00 | 0.00 | 72 | 1011.5 |
| 20260505195540 | 55 | 17 | 4.3 | 12.2 | 0.00 | 0.00 | 0.00 | 72 | 1011.5 |
| 20260505195041 | 56 | 320 | 3.5 | 12.2 | 0.00 | 0.00 | 0.00 | 72 | 1011.5 |
| 20260505194556 | 56 | 45 | 2.6 | 10.4 | 0.00 | 0.00 | 0.00 | 72 | 1011.3 |
| 20260505194043 | 56 | 342 | 5.2 | 10.4 | 0.00 | 0.00 | 0.00 | 72 | 1011.3 |
| 20260505193541 | 56 | 298 | 3.5 | 12.2 | 0.00 | 0.00 | 0.00 | 72 | 1011.3 |
| 20260505193103 | 56 | 348 | 3.5 | 12.2 | 0.00 | 0.00 | 0.00 | 73 | 1011.2 |
| 20260505192541 | 57 | 355 | 2.6 | 10.4 | 0.00 | 0.00 | 0.00 | 73 | 1011.2 |
| 20260505192042 | 57 | 14 | 2.6 | 7.8 | 0.00 | 0.00 | 0.00 | 73 | 1011.1 |
| 20260505191543 | 57 | 346 | 2.6 | 9.6 | 0.00 | 0.00 | 0.00 | 72 | 1011.0 |
| 20260505191041 | 57 | 346 | 3.5 | 9.6 | 0.00 | 0.00 | 0.00 | 72 | 1011.0 |
| 20260505190540 | 57 | 15 | 2.6 | 8.7 | 0.00 | 0.00 | 0.00 | 72 | 1011.0 |
| 20260505190050 | 57 | 5 | 3.5 | 12.2 | 0.00 | 0.00 | 0.00 | 71 | 1010.9 |
| 20260505185542 | 57 | 348 | 4.3 | 12.2 | 0.00 | 0.00 | 0.00 | 71 | 1010.9 |
| 20260505185040 | 57 | 333 | 5.2 | 12.2 | 0.00 | 0.00 | 0.00 | 70 | 1010.9 |
| 20260505184555 | 57 | 5 | 2.6 | 9.6 | 0.00 | 0.00 | 0.00 | 70 | 1010.8 |
| 20260505184043 | 58 | 343 | 1.7 | 4.3 | 0.00 | 0.00 | 0.00 | 70 | 1010.9 |
| 20260505183541 | 58 | 5 | 0.9 | 4.3 | 0.00 | 0.00 | 0.00 | 70 | 1010.8 |
| 20260505183044 | 58 | 343 | 1.7 | 4.3 | 0.00 | 0.00 | 0.00 | 71 | 1010.7 |
| 20260505182540 | 58 | 342 | 0.9 | 5.2 | 0.00 | 0.00 | 0.00 | 71 | 1010.8 |
| 20260505182037 | 58 | 13 | 0.9 | 5.2 | 0.00 | 0.00 | 0.00 | 71 | 1010.7 |
| 20260505181548 | 58 | 285 | 0.0 | 2.6 | 0.00 | 0.00 | 0.00 | 71 | 1010.8 |
| 20260505181041 | 58 | 0 | 0.0 | 4.3 | 0.00 | 0.00 | 0.00 | 70 | 1010.8 |
| 20260505180540 | 58 | 338 | 0.9 | 5.2 | 0.00 | 0.00 | 0.00 | 70 | 1010.8 |
| 20260505180051 | 58 | 20 | 1.7 | 5.2 | 0.00 | 0.00 | 0.00 | 70 | 1010.8 |
| 20260505175541 | 58 | 5 | 0.9 | 4.3 | 0.00 | 0.00 | 0.00 | 70 | 1010.8 |
| 20260505175042 | 58 | 351 | 0.9 | 5.2 | 0.00 | 0.00 | 0.00 | 70 | 1010.8 |
| 20260505174550 | 58 | 319 | 1.7 | 6.1 | 0.00 | 0.00 | 0.00 | 70 | 1010.8 |
| 20260505174043 | 58 | 298 | 1.7 | 6.1 | 0.00 | 0.00 | 0.00 | 70 | 1010.7 |
| 20260505173542 | 58 | 267 | 2.6 | 6.1 | 0.00 | 0.00 | 0.00 | 70 | 1010.8 |
| 20260505173049 | 59 | 355 | 1.7 | 7.8 | 0.00 | 0.00 | 0.00 | 70 | 1010.8 |
| 20260505172541 | 59 | 294 | 1.7 | 7.8 | 0.00 | 0.00 | 0.00 | 69 | 1010.8 |
| 20260505172040 | 59 | 350 | 1.7 | 7.8 | 0.00 | 0.00 | 0.00 | 69 | 1010.9 |
| 20260505171553 | 59 | 289 | 2.6 | 7.8 | 0.00 | 0.00 | 0.00 | 69 | 1010.9 |
| 20260505171041 | 59 | 0 | 1.7 | 8.7 | 0.00 | 0.00 | 0.00 | 69 | 1010.9 |
| 20260505170540 | 59 | 281 | 2.6 | 8.7 | 0.00 | 0.00 | 0.00 | 69 | 1010.8 |
| 20260505170051 | 59 | 300 | 1.7 | 7.0 | 0.00 | 0.00 | 0.00 | 69 | 1010.8 |
| 20260505165540 | 59 | 273 | 1.7 | 7.8 | 0.00 | 0.00 | 0.00 | 70 | 1010.8 |
| 20260505165037 | 59 | 293 | 2.6 | 7.8 | 0.00 | 0.00 | 0.00 | 70 | 1010.9 |
| 20260505164551 | 59 | 288 | 2.6 | 7.8 | 0.00 | 0.00 | 0.00 | 69 | 1010.9 |
| 20260505164041 | 59 | 286 | 1.7 | 7.0 | 0.00 | 0.00 | 0.00 | 70 | 1010.8 |
| 20260505163537 | 59 | 279 | 2.6 | 7.0 | 0.00 | 0.00 | 0.00 | 69 | 1010.8 |
| 20260505163043 | 59 | 290 | 1.7 | 7.8 | 0.00 | 0.00 | 0.00 | 69 | 1010.9 |
| 20260505162540 | 60 | 281 | 3.5 | 7.8 | 0.00 | 0.00 | 0.00 | 69 | 1010.8 |
| 20260505162041 | 60 | 314 | 3.5 | 7.8 | 0.00 | 0.00 | 0.00 | 68 | 1011.0 |
| 20260505161601 | 60 | 288 | 3.5 | 7.0 | 0.00 | 0.00 | 0.00 | 68 | 1010.8 |
| 20260505161041 | 60 | 282 | 1.7 | 7.0 | 0.00 | 0.00 | 0.00 | 67 | 1010.8 |
| 20260505160541 | 60 | 286 | 2.6 | 6.1 | 0.00 | 0.00 | 0.00 | 68 | 1010.9 |
| 20260505153101 | 60 | 0 | 2.6 | 8.7 | 0.00 | 0.00 | 0.00 | 67 | 1010.8 |
| 20260505152544 | 61 | 276 | 3.5 | 8.7 | 0.00 | 0.00 | 0.00 | 67 | 1011.0 |
| 20260505152042 | 60 | 225 | 1.7 | 5.2 | 0.00 | 0.00 | 0.00 | 66 | 1010.8 |
| 20260505151546 | 61 | 0 | 0.9 | 5.2 | 0.00 | 0.00 | 0.00 | 66 | 1011.0 |
| 20260505151044 | 60 | 324 | 1.7 | 6.1 | 0.00 | 0.00 | 0.00 | 66 | 1011.0 |
| 20260505150542 | 60 | 292 | 0.9 | 6.1 | 0.00 | 0.00 | 0.00 | 67 | 1011.0 |
| 20260505140541 | 59 | 349 | 0.9 | 3.5 | 0.00 | 0.00 | 0.00 | 69 | 1011.2 |
| 20260505125040 | 60 | 360 | 1.7 | 7.8 | 0.00 | 0.00 | 0.00 | 64 | 1011.5 |
| 20260505124550 | 61 | 83 | 3.5 | 7.8 | 0.00 | 0.00 | 0.00 | 62 | 1011.5 |
| 20260505124041 | 61 | 340 | 1.7 | 8.7 | 0.00 | 0.00 | 0.00 | 65 | 1011.5 |
| 20260505123546 | 61 | 344 | 2.6 | 8.7 | 0.00 | 0.00 | 0.00 | 64 | 1011.6 |
| 20260505123053 | 61 | 339 | 1.7 | 7.0 | 0.00 | 0.00 | 0.00 | 65 | 1011.6 |
| 20260505122541 | 61 | 22 | 1.7 | 7.8 | 0.00 | 0.00 | 0.00 | 65 | 1011.6 |
| 20260505122041 | 61 | 355 | 1.7 | 7.8 | 0.00 | 0.00 | 0.00 | 65 | 1011.6 |
| 20260505121550 | 61 | 346 | 3.5 | 7.8 | 0.00 | 0.00 | 0.00 | 64 | 1011.5 |
| 20260505121045 | 61 | 32 | 1.7 | 7.0 | 0.00 | 0.00 | 0.00 | 64 | 1011.6 |
| 20260505120540 | 62 | 360 | 1.7 | 7.8 | 0.00 | 0.00 | 0.00 | 64 | 1011.5 |
| 20260505120056 | 61 | 343 | 3.5 | 7.8 | 0.00 | 0.00 | 0.00 | 64 | 1011.5 |
| 20260505115541 | 61 | 17 | 2.6 | 8.7 | 0.00 | 0.00 | 0.00 | 64 | 1011.6 |
| 20260505115040 | 61 | 57 | 2.6 | 8.7 | 0.00 | 0.00 | 0.00 | 65 | 1011.5 |
| 20260505114551 | 61 | 335 | 3.5 | 8.7 | 0.00 | 0.00 | 0.00 | 64 | 1011.5 |
| 20260505114041 | 61 | 329 | 1.7 | 7.8 | 0.00 | 0.00 | 0.00 | 66 | 1011.6 |
| 20260505113545 | 62 | 22 | 2.6 | 7.0 | 0.00 | 0.00 | 0.00 | 63 | 1011.6 |
| 20260505113051 | 64 | 355 | 2.6 | 7.8 | 0.00 | 0.00 | 0.00 | 62 | 1011.7 |
| 20260505112541 | 64 | 0 | 2.6 | 7.8 | 0.00 | 0.00 | 0.00 | 65 | 1011.7 |
| 20260505112041 | 63 | 343 | 1.7 | 5.2 | 0.00 | 0.00 | 0.00 | 67 | 1011.8 |
| 20260505111551 | 61 | 284 | 1.7 | 7.0 | 0.00 | 0.00 | 0.00 | 69 | 1011.8 |
| 20260505111041 | 61 | 318 | 2.6 | 7.0 | 0.00 | 0.00 | 0.00 | 66 | 1011.8 |
| 20260505110541 | 61 | 5 | 0.0 | 4.3 | 0.00 | 0.00 | 0.00 | 70 | 1011.9 |
| 20260505102045 | 57 | 24 | 0.0 | 7.0 | 0.00 | 0.00 | 0.00 | 76 | 1012.3 |
| 20260505101553 | 57 | 0 | 0.9 | 7.8 | 0.00 | 0.00 | 0.00 | 76 | 1012.4 |
| 20260505101041 | 58 | 0 | 0.9 | 7.8 | 0.00 | 0.00 | 0.00 | 76 | 1012.4 |
| 20260505100543 | 58 | 0 | 0.9 | 6.1 | 0.00 | 0.00 | 0.00 | 77 | 1012.3 |
| 20260505100053 | 58 | 34 | 0.0 | 3.5 | 0.00 | 0.00 | 0.00 | 79 | 1012.3 |
| 20260505095541 | 58 | 0 | 0.0 | 4.3 | 0.00 | 0.00 | 0.00 | 79 | 1012.3 |
| 20260505095041 | 56 | 0 | 0.0 | 4.3 | 0.00 | 0.00 | 0.00 | 81 | 1012.4 |
| 20260505094549 | 55 | 12 | 0.0 | 4.3 | 0.00 | 0.00 | 0.00 | 84 | 1012.5 |
| 20260505094041 | 54 | 0 | 0.0 | 3.5 | 0.00 | 0.00 | 0.00 | 84 | 1012.5 |
| 20260505093541 | 53 | 0 | 0.0 | 3.5 | 0.00 | 0.00 | 0.00 | 84 | 1012.7 |
| 20260505093050 | 53 | 0 | 0.0 | 3.5 | 0.00 | 0.00 | 0.00 | 84 | 1012.7 |
| 20260505092541 | 53 | 327 | 0.0 | 5.2 | 0.00 | 0.00 | 0.00 | 83 | 1012.7 |
| 20260505092041 | 53 | 0 | 0.0 | 7.0 | 0.00 | 0.00 | 0.00 | 83 | 1012.7 |
| 20260505091613 | 53 | 360 | 0.9 | 7.8 | 0.00 | 0.00 | 0.00 | 83 | 1012.6 |
| 20260505091042 | 53 | 0 | 1.7 | 7.8 | 0.00 | 0.00 | 0.00 | 83 | 1012.6 |
| 20260505090541 | 53 | 342 | 2.6 | 7.8 | 0.00 | 0.00 | 0.00 | 84 | 1012.7 |
| 20260505090104 | 53 | 336 | 1.7 | 7.0 | 0.00 | 0.00 | 0.00 | 84 | 1012.7 |
| 20260505085540 | 53 | 355 | 2.6 | 7.0 | 0.00 | 0.00 | 0.00 | 85 | 1012.7 |
| 20260505085041 | 53 | 355 | 1.7 | 6.1 | 0.00 | 0.00 | 0.00 | 86 | 1012.7 |
| 20260505084605 | 53 | 344 | 0.9 | 4.3 | 0.00 | 0.00 | 0.00 | 86 | 1012.7 |
| 20260505084040 | 53 | 0 | 0.0 | 3.5 | 0.00 | 0.00 | 0.00 | 87 | 1012.8 |
| 20260505083540 | 53 | 0 | 0.9 | 4.3 | 0.00 | 0.00 | 0.00 | 87 | 1012.7 |
| 20260505083103 | 53 | 0 | 0.9 | 7.0 | 0.00 | 0.00 | 0.00 | 88 | 1012.8 |
| 20260505082542 | 53 | 321 | 0.9 | 7.0 | 0.00 | 0.00 | 0.00 | 88 | 1012.8 |
| 20260505082041 | 53 | 360 | 0.0 | 2.6 | 0.00 | 0.00 | 0.00 | 89 | 1012.8 |
| 20260505081600 | 52 | 0 | 0.0 | 2.6 | 0.00 | 0.00 | 0.00 | 89 | 1012.8 |
| 20260505081043 | 52 | 0 | 0.0 | 2.6 | 0.00 | 0.00 | 0.00 | 89 | 1012.7 |
| 20260505080541 | 52 | 0 | 0.0 | 2.6 | 0.00 | 0.00 | 0.00 | 89 | 1012.8 |
| 20260505080058 | 52 | 0 | 0.0 | 1.7 | 0.00 | 0.00 | 0.00 | 90 | 1012.8 |
| 20260505075542 | 52 | 341 | 0.0 | 1.7 | 0.00 | 0.00 | 0.00 | 90 | 1012.7 |
| 20260505075041 | 52 | 0 | 0.0 | 1.7 | 0.00 | 0.00 | 0.00 | 90 | 1012.7 |
| 20260505074548 | 52 | 0 | 0.0 | 0.9 | 0.00 | 0.00 | 0.00 | 90 | 1012.7 |
| 20260505074041 | 52 | 0 | 0.0 | 0.9 | 0.00 | 0.00 | 0.00 | 90 | 1012.7 |
| 20260505073541 | 52 | 0 | 0.0 | 1.7 | 0.00 | 0.00 | 0.00 | 90 | 1012.8 |